NOAA 21 (JPSS-2)

Last updated on Tue Dec 16 2025 00:02:24 GMT+0000 (Coordinated Universal Time)

1 54234U 22150A 25349.35151906 .00000088 00000+0 62427-4 0 9991 2 54234 98.7464 285.6272 0002116 33.0442 327.0866 14.19525054160461
UTC large
Height (km)
Speed (km/s)
/
Latitude / Longitude
Inclination (degrees)
Orbital Period (minutes)
Azimuth
Elevation
Range (km)
Doppler Factor

Next 0 passes for location: London (51.5072 / 0.1276)

Sorry there are no passes over London.